Wetbulb
55.87 55.86 56.02 56.39 56.05 56.00 56.04 56.17 56.64 56.64 56.42 56.29 56.29 56.22 56.43 56.53 56.88 57.09 57.20 57.15 57.32 57.53 58.16 59.74 59.94 59.97 61.42 57.66 57.90 69.64 71.84 71.66 65.34 60.36 58.21 57.75 59.77 60.45 57.68 57.93 58.76 57.82 58.39 59.25 58.49 57.56 59.73
55.47 55.35 55.80 55.86 55.79 55.72 55.69 55.90 55.98 56.12 56.23 56.08 55.91 56.06 56.18 56.22 56.64 56.75 56.89 56.67 56.77 57.37 58.08 59.55 59.52 60.03 61.99 55.73 67.34 66.88 62.93 62.46 60.83 59.61 58.48 60.18 61.22 61.49 58.47 57.86 58.14 58.70 58.96 58.89 57.66 60.42 62.51
54.87 55.08 55.65 55.65 55.48 55.45 55.36 55.42 55.52 55.45 55.56 55.71 55.85 56.04 56.08 56.03 55.92 56.08 56.28 55.92 56.86 58.49 58.15 59.51 60.01 62.42 59.68 58.79 66.50 63.47 60.26 59.24 60.75 59.95 57.48 63.02 63.14 60.73 59.89 58.01 59.30 59.46 57.76 57.88 57.38 59.55 61.66
54.81 55.07 55.23 55.25 55.20 55.04 55.10 55.06 55.16 55.04 55.21 55.47 55.89 55.93 55.81 55.67 55.59 55.41 55.22 55.38 58.24 58.08 59.24 60.30 60.50 62.76 56.97 64.34 67.21 60.77 61.39 59.83 60.75 60.64 59.35 62.81 63.56 61.24 60.05 60.04 59.10 57.86 57.65 54.50 56.68 58.78 61.21
54.43 54.70 54.88 54.94 54.85 54.71 54.59 54.55 54.36 54.63 55.33 55.42 55.30 55.34 55.27 55.33 55.40 55.21 54.76 55.12 59.18 60.15 60.44 61.04 64.07 62.39 58.18 63.03 61.29 61.31 61.52 58.72 59.51 59.80 61.65 60.97 61.99 59.99 59.08 57.32 55.73 56.34 53.04 53.44 54.33 58.19 58.92
54.18 54.18 54.58 54.88 54.91 54.58 54.70 54.75 54.61 54.89 55.06 55.11 55.07 54.78 54.74 54.76 54.88 54.51 54.00 55.49 60.05 60.72 62.32 63.64 62.87 60.12 61.93 60.60 62.60 60.84 61.23 59.71 56.66 58.45 59.32 59.57 59.42 57.32 57.76 56.37 50.95 52.50 52.34 53.37 53.57 56.43 57.47
53.72 54.02 53.97 54.28 54.47 54.18 54.39 54.68 54.80 54.63 54.89 54.83 54.68 54.58 54.54 54.39 54.18 53.73 56.16 63.00 61.29 60.11 61.89 58.69 55.24 57.31 60.89 63.43 62.51 59.36 60.27 59.18 57.94 58.33 55.62 58.28 54.94 53.81 56.24 56.92 56.43 55.11 53.78 53.02 55.44 56.84 56.19
53.51 54.06 53.87 53.86 53.91 54.56 54.86 54.85 54.79 54.77 54.52 54.52 54.52 54.23 54.17 53.84 53.41 53.22 58.86 60.37 58.92 57.89 56.41 60.51 60.02 58.09 60.45 62.92 58.13 59.45 62.46 58.23 57.29 54.46 56.82 55.26 52.34 55.73 56.15 56.12 55.76 54.80 54.19 53.90 54.97 56.11 56.64
53.42 53.50 53.65 54.18 54.52 54.55 54.56 54.46 54.44 54.44 54.17 54.04 54.02 53.88 53.61 53.22 52.52 56.61 54.61 55.47 60.88 58.73 57.14 57.54 58.66 58.21 59.45 60.89 58.01 58.80 61.36 59.38 56.64 55.11 55.04 53.46 55.22 57.73 56.21 55.35 54.65 55.35 54.46 54.51 53.98 55.72 57.15
53.49 53.25 53.78 54.39 54.29 54.40 54.42 54.34 54.29 54.25 53.78 53.69 53.57 53.49 53.03 51.72 53.32 55.43 54.46 61.23 58.01 58.31 53.88 54.69 55.44 58.28 59.32 60.32 56.62 61.96 62.44 59.10 56.75 54.90 55.41 55.59 56.94 54.62 54.59 54.56 55.96 53.52 55.64 54.91 54.39 54.49 51.39
53.93 53.55 53.54 54.24 54.10 54.24 54.27 54.23 54.15 53.66 53.41 53.38 53.38 53.10 52.56 51.76 54.29 53.48 57.65 56.49 60.36 59.81 45.12 54.59 55.65 61.50 60.52 57.68 58.26 57.85 62.56 59.69 55.90 55.85 56.53 54.61 54.94 54.43 54.14 55.09 56.53 54.66 55.90 54.91 54.56 53.92 53.65
53.67 53.95 54.00 53.84 53.56 54.11 54.02 53.78 53.69 53.34 53.24 53.24 52.79 52.62 52.21 55.01 55.50 56.38 56.67 56.64 60.11 52.14 44.54 52.17 55.35 54.86 56.16 57.12 56.81 58.01 58.71 60.82 59.44 56.38 57.08 55.29 56.51 56.06 56.45 56.49 56.82 57.16 56.13 55.67 55.14 53.66 49.03
53.08 53.51 53.60 53.62 53.78 53.86 53.75 53.94 53.10 53.30 53.28 52.70 52.00 51.37 51.54 54.67 53.72 55.67 56.67 59.37 51.90 47.47 53.80 52.12 52.28 54.78 55.35 54.70 54.74 55.86 55.50 55.26 53.70 51.89 52.18 54.39 54.38 56.05 57.50 55.08 56.65 56.43 54.16 49.48 48.26 48.23 49.13
53.30 53.54 53.55 53.97 53.73 53.61 53.45 53.65 53.32 53.26 53.10 52.19 51.18 50.67 54.30 54.98 58.71 56.76 54.38 55.96 47.56 50.84 51.66 54.42 53.78 54.30 53.02 55.30 54.44 54.65 54.70 53.46 56.11 55.10 53.08 51.14 49.34 54.37 56.96 56.13 54.48 54.70 54.24 50.08 44.77 46.74 49.31
53.31 53.09 53.53 53.55 53.61 53.30 53.34 53.41 53.14 53.14 52.54 51.49 50.23 55.61 54.45 57.81 57.27 56.61 51.30 49.86 50.64 52.80 53.59 52.94 53.07 51.76 52.67 54.56 54.35 53.58 53.96 53.77 55.42 55.83 52.71 51.66 51.27 55.97 56.46 57.19 57.02 54.55 52.12 55.54 51.08 52.70 48.88
53.51 53.17 52.88 53.13 53.34 53.26 53.26 53.26 53.30 53.12 52.34 50.94 51.00 51.99 52.54 57.86 58.64 54.88 50.03 47.62 53.23 55.12 54.83 53.19 51.14 53.28 50.88 52.90 52.41 53.11 53.00 55.46 54.68 56.43 57.43 54.77 51.20 54.86 54.73 56.79 56.18 55.90 57.60 51.15 52.20 46.16 45.38
53.52 53.21 52.85 52.68 52.99 53.12 53.18 52.96 52.94 52.86 51.90 50.74 51.64 48.99 56.06 58.63 56.88 51.68 46.18 49.29 52.88 55.78 55.94 52.95 52.58 52.82 53.34 52.61 53.25 52.86 53.25 54.55 56.01 55.68 57.11 55.45 53.86 53.32 55.18 54.02 53.38 53.84 53.37 54.34 54.02 52.39 47.94
53.36 53.16 52.78 52.49 52.46 52.97 53.04 52.85 52.65 52.16 50.87 50.55 51.55 47.74 56.98 57.67 49.37 48.51 47.05 50.46 50.84 52.87 55.21 54.28 52.96 53.77 53.73 54.22 53.23 53.23 52.92 54.83 56.41 56.68 53.68 56.19 53.83 52.06 52.18 55.91 56.61 56.46 54.97 55.21 50.64 51.14 51.85
52.56 52.79 52.55 52.31 52.38 52.95 52.99 52.71 52.41 51.79 50.84 49.39 48.76 49.67 58.52 56.70 47.56 47.25 49.88 49.74 52.09 51.25 52.44 52.77 52.49 53.64 55.20 54.04 52.65 54.09 54.32 56.31 55.62 55.76 55.21 56.21 52.61 49.83 51.03 53.69 55.41 54.30 55.69 56.29 56.06 55.68 52.01
52.03 52.56 52.25 51.95 52.13 52.70 52.68 52.71 52.45 52.09 51.42 49.54 49.55 49.13 53.80 53.81 54.57 52.31 48.32 48.87 48.44 51.60 51.47 52.43 52.37 54.53 54.13 53.32 55.85 54.36 54.12 55.39 56.34 56.14 59.40 59.68 54.22 52.65 49.44 51.99 54.50 53.09 53.97 55.34 54.99 51.75 52.13
52.44 52.25 52.01 52.03 52.07 52.39 52.33 52.74 52.63 52.35 51.43 50.01 52.01 51.12 51.25 50.43 50.66 52.58 52.39 50.73 48.50 48.43 52.26 53.12 51.21 51.39 53.46 53.04 53.53 53.80 55.25 55.74 56.76 56.99 56.98 56.83 53.63 54.74 54.18 53.91 54.11 53.62 53.46 54.05 53.53 54.19 51.74
51.80 52.49 52.24 52.30 52.19 52.04 51.89 52.47 52.64 52.17 50.55 49.66 47.65 49.07 53.15 50.85 51.77 51.33 48.51 51.17 50.18 50.07 51.91 50.82 51.19 51.46 51.94 53.90 55.02 53.74 56.03 56.74 55.87 57.05 56.83 57.90 55.44 56.35 52.64 53.41 53.19 51.62 53.21 53.88 54.41 54.35 54.63
51.75 52.15 51.90 51.98 52.02 51.56 51.72 52.25 52.56 51.50 49.52 49.17 51.39 51.57 49.21 48.44 50.91 50.20 51.00 51.48 51.54 52.59 54.02 54.86 54.19 54.12 53.09 54.04 56.69 57.89 58.93 59.02 59.51 57.98 57.60 56.91 56.63 54.88 51.15 53.27 52.41 50.35 53.26 54.08 55.08 56.13 55.53
52.14 52.14 51.96 51.58 51.66 51.49 51.62 51.93 52.58 51.79 49.18 49.96 49.87 48.38 47.42 44.82 49.03 50.86 49.60 50.43 51.37 52.24 52.35 54.34 55.62 55.42 55.72 57.86 57.72 58.06 57.75 58.35 58.81 58.34 59.90 58.01 57.79 55.87 51.41 53.12 45.87 54.08 57.21 56.42 55.03 55.89 57.05
51.64 51.77 51.51 51.62 51.47 51.43 51.47 51.89 52.29 52.11 51.05 50.45 51.26 48.83 48.20 44.75 48.12 49.01 49.50 50.37 51.57 52.79 51.80 53.50 54.73 55.82 57.46 57.11 55.41 53.76 53.32 54.45 54.41 56.21 57.18 58.82 57.57 52.63 49.89 49.81 52.21 52.83 54.54 54.25 54.16 54.33 57.69
51.89 51.68 51.41 51.22 51.35 51.47 51.64 51.93 51.83 52.06 51.40 50.15 49.53 51.12 48.87 46.18 45.63 47.47 48.12 49.62 51.15 51.75 52.28 53.78 55.99 58.34 56.99 56.14 54.14 50.12 47.77 50.85 50.69 51.98 56.82 56.61 59.24 53.59 51.67 47.02 45.40 53.59 56.78 57.90 57.44 51.28 58.49
50.73 50.94 50.80 51.16 51.41 51.47 51.72 51.66 51.81 51.66 51.52 50.15 50.09 51.24 48.53 46.31 50.38 49.01 48.13 49.53 51.31 51.54 52.93 53.79 53.46 55.66 56.59 54.34 51.33 49.95 49.17 53.30 49.51 49.89 51.07 52.44 53.71 50.56 50.55 49.15 51.04 56.25 57.42 58.08 49.75 52.68 58.99
50.01 49.91 50.35 50.88 50.94 51.11 50.97 51.27 51.33 51.56 51.60 50.65 49.82 51.64 47.58 46.79 48.98 49.49 49.76 48.95 50.21 51.88 50.75 51.88 52.66 54.10 54.81 52.35 51.94 51.95 51.05 52.62 52.02 53.70 53.07 52.09 50.96 49.82 51.38 49.30 47.17 58.13 56.67 53.53 58.55 60.12 59.98
49.48 49.66 49.89 49.99 50.15 50.78 50.89 51.41 51.46 51.62 51.56 49.62 47.59 51.28 51.07 46.00 48.30 51.61 51.61 52.44 50.62 50.88 49.78 52.63 51.18 52.01 53.77 53.49 54.50 55.66 51.86 53.30 53.33 48.79 53.97 51.03 54.97 53.04 51.90 54.32 58.32 59.18 58.97 60.25 60.89 60.12 59.75
MSLP
1023.09 1022.77 1022.35 1021.93 1021.55 1021.16 1020.68 1020.16 1019.73 1019.26 1018.68 1018.13 1017.53 1017.01 1016.44 1015.84 1015.22 1014.56 1013.93 1013.45 1013.11 1012.80 1012.42 1012.04 1011.88 1011.89 1011.75 1009.35 1006.75 1006.82 1007.61 1007.99 1007.90 1007.32 1006.48 1005.92 1005.30 1004.72 1003.96 1003.92 1003.85 1003.35 1003.57 1003.54 1003.51 1003.91 1003.94
1023.46 1023.04 1022.61 1022.15 1021.78 1021.34 1020.86 1020.33 1019.81 1019.33 1018.78 1018.19 1017.60 1016.97 1016.36 1015.73 1015.06 1014.40 1013.74 1013.12 1012.68 1012.41 1012.20 1011.86 1011.76 1011.79 1010.27 1007.48 1006.79 1007.06 1007.16 1007.46 1007.00 1006.65 1006.13 1005.84 1005.08 1005.01 1004.34 1004.07 1003.68 1003.93 1003.73 1003.54 1003.48 1003.76 1004.18
1023.74 1023.33 1022.83 1022.33 1021.88 1021.45 1021.02 1020.53 1019.94 1019.36 1018.80 1018.20 1017.59 1016.90 1016.22 1015.61 1014.92 1014.18 1013.47 1012.87 1012.27 1011.82 1011.86 1011.74 1011.69 1011.23 1009.02 1007.08 1006.72 1006.99 1007.09 1006.84 1006.74 1006.22 1005.89 1005.90 1005.60 1005.07 1004.58 1004.09 1004.44 1003.95 1003.14 1003.08 1003.29 1003.57 1004.14
1023.91 1023.52 1023.08 1022.57 1022.08 1021.61 1021.15 1020.65 1020.07 1019.43 1018.78 1018.14 1017.50 1016.83 1016.11 1015.42 1014.80 1014.02 1013.30 1012.67 1012.01 1011.56 1011.55 1011.59 1011.60 1010.41 1007.04 1006.93 1006.64 1006.96 1006.77 1006.85 1006.90 1006.60 1005.94 1006.13 1005.92 1005.11 1004.50 1004.69 1004.18 1003.33 1003.16 1002.22 1003.09 1003.54 1004.16
1024.11 1023.65 1023.22 1022.77 1022.28 1021.76 1021.19 1020.61 1020.10 1019.49 1018.81 1018.04 1017.35 1016.69 1015.99 1015.24 1014.54 1013.89 1013.16 1012.57 1012.01 1011.66 1011.49 1011.47 1010.77 1009.07 1006.38 1007.56 1006.60 1006.24 1006.21 1006.10 1006.47 1006.54 1006.43 1006.44 1005.76 1004.70 1004.65 1003.71 1003.08 1002.98 1001.81 1002.17 1002.97 1003.44 1003.83
1024.22 1023.78 1023.34 1022.83 1022.33 1021.83 1021.27 1020.66 1020.05 1019.42 1018.77 1018.03 1017.24 1016.51 1015.81 1015.09 1014.29 1013.62 1012.87 1012.38 1011.93 1011.65 1011.23 1010.59 1009.67 1008.25 1006.15 1005.18 1005.40 1005.81 1006.21 1006.00 1005.90 1006.02 1006.08 1005.80 1004.95 1004.16 1003.68 1003.11 1001.90 1001.98 1002.14 1002.48 1002.50 1003.40 1003.70
1024.37 1023.92 1023.41 1022.87 1022.42 1021.96 1021.38 1020.72 1020.10 1019.38 1018.65 1017.92 1017.18 1016.42 1015.62 1014.78 1014.01 1013.37 1012.50 1011.27 1011.12 1010.17 1008.95 1006.61 1005.95 1005.28 1004.65 1004.80 1005.10 1005.24 1005.57 1005.63 1005.40 1005.30 1004.59 1004.91 1004.05 1003.08 1002.55 1002.68 1002.84 1002.85 1002.81 1002.65 1002.69 1003.25 1003.47
1024.48 1023.99 1023.49 1022.96 1022.44 1021.87 1021.27 1020.66 1020.00 1019.32 1018.56 1017.82 1017.09 1016.31 1015.46 1014.44 1013.58 1012.91 1012.05 1009.32 1008.50 1008.54 1006.62 1005.30 1005.23 1005.02 1004.66 1004.10 1004.10 1004.59 1004.96 1004.44 1004.56 1004.09 1004.07 1004.49 1003.33 1002.65 1003.15 1003.38 1003.38 1003.22 1002.86 1002.74 1003.24 1003.65 1003.65
1024.50 1024.01 1023.52 1022.97 1022.38 1021.77 1021.12 1020.56 1019.97 1019.19 1018.42 1017.72 1017.02 1016.26 1015.34 1014.19 1013.22 1012.35 1010.46 1008.84 1008.43 1008.04 1006.13 1004.22 1004.09 1003.53 1003.56 1003.96 1003.10 1003.74 1004.30 1003.76 1003.64 1003.42 1003.64 1002.79 1002.46 1003.06 1003.30 1003.26 1003.09 1002.77 1002.28 1002.48 1002.48 1003.61 1003.62
1024.41 1023.90 1023.36 1022.86 1022.27 1021.66 1021.03 1020.42 1019.78 1019.07 1018.32 1017.55 1016.86 1016.21 1015.48 1014.13 1012.89 1011.18 1009.01 1008.51 1008.29 1008.03 1005.34 1002.98 1003.04 1002.42 1002.94 1002.74 1002.63 1002.93 1003.48 1003.25 1003.26 1002.93 1003.11 1002.74 1002.93 1003.12 1002.92 1002.51 1002.40 1001.89 1002.80 1002.73 1002.93 1003.05 1002.50
1024.15 1023.69 1023.24 1022.78 1022.23 1021.60 1020.91 1020.28 1019.58 1018.83 1017.97 1017.29 1016.57 1016.01 1015.53 1015.40 1012.84 1010.33 1008.90 1008.56 1008.00 1007.45 1003.58 1001.63 1001.88 1001.74 1001.51 1001.81 1001.33 1002.62 1003.05 1003.09 1002.42 1002.60 1003.08 1002.06 1002.42 1002.56 1002.28 1001.90 1002.20 1002.17 1002.94 1002.85 1002.94 1002.81 1002.87
1024.12 1023.64 1023.02 1022.58 1022.06 1021.48 1020.80 1020.06 1019.29 1018.50 1017.70 1016.93 1016.12 1015.58 1015.30 1013.16 1012.49 1009.79 1009.26 1008.66 1007.77 1005.66 1002.02 1001.16 1001.14 1001.19 1001.18 1001.04 1001.11 1002.00 1002.67 1002.88 1002.54 1002.43 1002.57 1001.90 1002.56 1002.22 1001.59 1002.18 1002.24 1002.99 1003.20 1003.29 1003.24 1002.65 1002.64
1023.88 1023.41 1022.97 1022.46 1021.88 1021.28 1020.64 1019.86 1019.02 1018.25 1017.35 1016.35 1015.36 1014.61 1014.83 1012.84 1009.51 1009.55 1009.12 1007.73 1005.61 1002.96 1001.28 1000.22 1000.08 1000.09 1000.01 1000.07 1000.55 1001.14 1001.62 1002.02 1001.66 1001.86 1001.62 1001.84 1001.77 1001.84 1002.09 1002.08 1002.75 1002.68 1002.23 1001.87 1002.06 1001.95 1002.03
1023.66 1023.21 1022.73 1022.34 1021.77 1021.13 1020.40 1019.65 1018.84 1017.96 1016.97 1015.80 1014.55 1013.18 1011.90 1010.99 1010.04 1009.84 1008.54 1006.48 1003.40 1001.27 1000.20 999.96 999.42 999.50 999.14 999.34 999.92 1000.33 1000.80 1000.93 1001.23 1000.79 1000.36 1000.60 1000.82 1001.31 1001.46 1001.09 1001.57 1001.98 1001.46 1001.07 1001.38 1001.43 1001.90
1023.37 1022.99 1022.61 1022.04 1021.62 1020.99 1020.26 1019.49 1018.69 1017.81 1016.77 1015.53 1013.74 1010.73 1010.24 1009.30 1009.82 1009.81 1007.60 1004.51 1001.80 1000.82 1000.11 999.66 999.38 998.83 998.71 998.86 999.29 999.88 999.92 1000.00 1000.27 1000.68 999.88 999.95 999.87 1000.59 1001.15 1001.29 1001.43 1001.80 1002.10 1001.73 1001.84 1002.50 1002.61
1022.98 1022.63 1022.31 1021.92 1021.36 1020.81 1020.15 1019.43 1018.59 1017.62 1016.52 1015.30 1013.40 1010.55 1008.41 1008.73 1009.19 1008.52 1006.25 1003.02 1001.19 1000.66 1000.57 1000.06 998.78 998.38 998.05 998.30 998.98 999.07 999.17 999.29 999.52 1000.13 1000.06 999.96 999.94 1000.60 1001.80 1001.95 1002.28 1001.85 1001.56 1001.94 1001.84 1001.60 1001.80
1022.75 1022.28 1021.86 1021.57 1021.22 1020.70 1020.03 1019.35 1018.53 1017.58 1016.35 1014.66 1012.89 1009.47 1008.15 1008.48 1008.56 1006.64 1003.85 1002.10 1001.30 1001.04 1000.87 999.99 998.95 998.26 997.71 997.74 998.26 998.18 998.20 998.55 999.00 999.60 1000.10 1000.11 1000.29 1000.76 1001.71 1001.22 1000.72 1001.97 1001.63 1001.62 1001.00 1001.71 1001.21
1022.26 1022.09 1021.59 1021.22 1020.80 1020.53 1019.93 1019.19 1018.55 1017.68 1016.47 1014.23 1012.37 1008.56 1008.03 1008.36 1006.68 1004.40 1002.57 1001.65 1001.35 1000.90 1000.81 1000.12 999.86 998.93 998.02 997.42 997.49 997.52 997.62 998.06 998.60 998.91 999.65 1000.08 1000.20 1000.05 1000.35 1001.10 1001.34 1000.38 1000.49 1000.99 1000.89 1001.58 1001.82
1022.06 1021.65 1021.21 1020.88 1020.56 1020.20 1019.79 1019.14 1018.49 1017.88 1017.46 1015.71 1012.24 1008.93 1007.65 1007.60 1004.54 1003.04 1002.29 1001.34 1001.79 1000.82 1000.16 999.95 999.37 999.12 998.59 998.02 997.66 997.33 997.67 998.05 998.93 999.14 999.26 1000.00 1000.03 999.87 1000.47 1001.22 1001.62 1000.98 1000.84 1000.88 1001.02 1001.38 1001.29
1021.53 1021.17 1020.89 1020.36 1020.31 1019.87 1019.56 1019.01 1018.35 1017.71 1017.33 1016.53 1012.80 1008.39 1006.61 1006.55 1004.78 1003.20 1001.84 1001.49 1001.12 1001.05 1000.41 1000.16 999.59 999.38 998.89 998.35 998.20 997.51 997.51 999.07 999.49 999.37 1000.00 1000.20 999.52 999.45 998.81 999.27 999.52 1000.39 1000.43 1000.84 1000.91 1000.76 1000.62
1021.06 1020.77 1020.34 1020.07 1019.72 1019.40 1019.32 1018.74 1018.37 1017.55 1016.96 1016.29 1012.27 1008.94 1008.65 1005.17 1004.44 1003.66 1002.73 1001.42 1000.72 1000.38 1000.85 1000.61 999.96 999.58 998.79 998.25 998.00 997.73 997.73 999.34 999.89 1000.40 1000.46 1000.08 999.79 999.79 999.31 999.08 999.37 999.35 999.90 1000.25 1000.54 1000.56 1000.45
1020.51 1020.20 1019.97 1019.58 1019.38 1019.07 1018.94 1018.51 1018.09 1017.45 1016.53 1015.25 1012.59 1011.05 1009.11 1007.42 1005.82 1004.88 1003.35 1001.98 1001.04 1000.37 1000.62 1000.25 1000.17 999.33 999.48 998.86 998.18 997.70 997.88 998.28 998.77 1000.47 1000.36 1000.10 999.89 1000.07 999.58 1000.12 1000.04 999.76 999.64 999.79 1000.42 1000.37 1000.35
1019.97 1019.78 1019.36 1019.17 1018.88 1018.79 1018.57 1018.28 1017.94 1017.50 1016.59 1014.51 1013.57 1012.70 1011.44 1007.40 1005.67 1004.68 1002.95 1002.50 1001.83 1001.73 1001.40 1001.09 1000.86 1000.72 1000.15 999.78 1000.05 999.28 998.18 998.10 998.34 999.22 999.68 1000.00 999.93 1000.25 999.61 1000.41 1000.56 1000.09 999.77 1000.00 1000.24 1000.55 1001.04
1019.34 1019.11 1018.89 1018.73 1018.59 1018.47 1018.22 1018.03 1017.63 1017.45 1017.32 1015.89 1014.60 1013.92 1011.35 1007.46 1006.28 1004.66 1004.48 1004.08 1003.11 1002.60 1002.08 1001.73 1001.82 1001.47 1002.06 1001.74 1001.18 999.81 999.19 999.34 999.57 999.85 999.72 999.99 1000.22 1000.06 999.82 1000.80 1000.40 999.91 1000.51 1000.60 1001.00 1001.51 1002.00
1018.75 1018.58 1018.44 1018.27 1018.22 1018.04 1017.85 1017.59 1017.37 1017.31 1017.15 1016.09 1015.26 1014.33 1012.00 1008.97 1007.38 1006.37 1005.66 1004.72 1004.17 1003.78 1003.29 1002.79 1002.69 1003.14 1002.87 1001.99 1000.43 1000.00 999.71 999.70 1000.06 1000.29 1000.24 1000.08 1000.14 999.96 1000.23 1000.33 1000.38 1001.36 1002.03 1001.94 1002.01 1002.29 1002.58
1018.21 1018.01 1017.92 1017.73 1017.69 1017.58 1017.49 1017.22 1017.07 1017.05 1016.80 1016.48 1015.32 1015.02 1013.69 1010.91 1007.62 1007.84 1006.69 1005.96 1004.25 1003.61 1003.64 1003.18 1003.63 1003.58 1002.81 1001.15 1000.07 999.14 998.54 999.09 999.78 1000.72 1000.90 1000.78 1000.92 1000.51 1000.58 1000.46 1000.06 1000.58 1002.21 1003.00 1003.30 1003.15 1004.02
1017.79 1017.49 1017.29 1017.15 1017.16 1017.16 1016.90 1016.79 1016.77 1016.81 1016.52 1016.54 1015.03 1015.29 1014.20 1011.50 1008.99 1008.90 1007.50 1006.85 1006.44 1005.39 1003.91 1004.06 1003.96 1003.26 1002.83 1000.97 999.83 999.02 998.40 999.08 999.21 1000.01 1000.84 1000.94 1001.02 1000.84 1000.75 1001.09 1001.12 1002.46 1003.31 1003.92 1004.06 1004.55 1005.02
1017.49 1017.21 1017.05 1016.82 1016.75 1016.73 1016.68 1016.72 1016.47 1016.39 1016.34 1016.30 1014.73 1015.05 1014.47 1012.03 1009.89 1009.56 1009.02 1008.48 1007.61 1006.73 1005.09 1005.53 1004.74 1003.81 1002.58 1001.35 1000.08 999.53 999.31 999.76 999.84 1000.01 1000.63 1000.68 1001.14 1000.92 1001.35 1001.48 1002.14 1003.17 1004.00 1004.27 1004.79 1005.32 1005.55
1017.24 1016.98 1016.82 1016.64 1016.55 1016.32 1016.16 1016.09 1015.97 1016.03 1016.08 1016.13 1014.65 1014.73 1014.69 1013.69 1010.41 1010.26 1009.75 1009.64 1009.54 1008.99 1008.05 1006.48 1005.95 1005.06 1004.12 1002.55 1001.79 1000.83 1000.67 1000.86 1000.17 1000.70 1002.12 1001.69 1001.48 1001.13 1002.16 1002.35 1003.75 1004.04 1004.61 1005.38 1005.59 1005.74 1006.08
Wind_Speed
19 19 19 19 19 20 20 20 19 20 20 21 22 23 22 22 22 21 21 20 17 13 10 9 3 4 6 8 0 7 12 9 15 12 12 11 10 5 6 4 3 0 6 4 2 4 4
19 18 19 19 19 20 20 21 21 21 21 22 22 22 23 23 22 21 21 21 18 13 8 5 3 4 7 7 3 7 15 14 12 12 10 8 3 2 3 2 2 3 4 1 2 7 7
19 19 19 19 19 20 21 21 22 22 22 23 22 22 22 23 23 23 22 21 18 12 5 3 5 6 7 5 2 9 14 12 11 7 10 4 2 7 2 6 1 3 7 7 7 9 10
18 19 19 19 20 20 21 22 22 23 23 23 22 23 23 23 23 24 23 21 16 0 3 5 5 6 1 1 7 11 9 9 8 5 5 4 3 2 5 2 6 7 6 8 8 10 6
19 19 20 20 20 21 21 21 22 22 22 22 23 23 23 23 22 22 20 19 9 2 3 5 7 6 6 4 9 13 10 10 10 7 5 3 6 3 6 10 9 8 7 7 10 9 9
18 19 20 21 21 22 21 21 21 21 22 23 23 24 24 24 23 21 21 10 2 6 6 6 5 7 8 7 10 11 8 11 11 12 10 8 8 10 9 9 9 9 6 6 10 12 11
18 20 20 20 21 22 21 22 22 22 22 23 24 24 25 25 24 22 14 6 8 8 8 7 3 3 9 10 13 12 12 12 13 15 13 11 11 14 14 12 5 2 4 6 10 6 12
18 19 21 21 21 21 21 22 22 23 23 23 24 25 26 26 25 21 7 6 5 7 9 12 12 7 4 9 11 14 15 13 15 15 10 8 13 9 2 6 8 6 7 8 4 7 12
17 19 19 20 20 20 21 22 22 23 23 24 24 25 25 27 28 7 7 9 2 6 8 7 9 11 13 12 16 19 18 9 15 15 16 13 5 10 10 11 11 10 10 10 6 9 8
17 18 18 18 20 20 21 21 22 23 24 24 24 24 24 29 9 6 5 3 6 5 7 12 11 10 10 12 10 19 19 11 9 15 12 9 11 8 9 12 13 14 4 5 9 13 12
15 16 17 17 19 20 21 21 22 23 24 25 25 23 22 15 12 6 6 7 5 6 7 12 10 9 20 16 17 15 19 11 12 10 10 9 13 12 12 13 12 10 7 5 5 9 4
16 16 16 18 19 20 21 22 22 24 24 26 26 23 22 4 6 11 10 10 6 9 10 9 10 16 21 20 10 16 17 13 4 9 13 4 2 6 10 5 9 11 10 8 6 8 11
14 16 16 18 19 20 21 22 23 24 25 27 29 28 17 5 3 5 6 6 8 11 5 9 12 20 24 18 15 18 22 21 13 15 14 14 13 6 9 12 9 14 13 8 8 9 3
15 14 15 17 18 19 21 22 23 25 26 29 32 31 5 8 4 6 6 11 12 7 13 2 6 18 23 21 17 18 21 19 21 17 14 14 17 14 13 14 12 17 11 7 4 6 7
15 14 15 15 17 19 20 22 23 25 27 30 33 4 5 4 9 6 9 15 11 13 5 6 9 17 22 17 13 16 19 21 22 17 11 15 11 13 10 7 8 10 9 5 6 1 8
14 13 14 15 16 17 20 22 23 25 27 30 10 6 5 5 7 8 11 19 15 6 3 7 14 16 21 23 16 19 18 21 22 22 17 8 13 14 8 8 3 9 7 8 8 4 7
14 14 13 14 15 17 19 21 22 24 27 29 7 6 7 7 9 8 14 20 22 10 8 7 10 9 16 20 23 22 17 8 23 21 19 9 10 11 10 13 15 8 11 9 6 5 7
12 13 13 14 14 16 18 20 20 22 25 10 6 6 6 4 9 10 15 18 5 13 12 9 6 10 12 15 22 20 22 20 15 19 23 20 11 9 17 6 5 8 13 15 10 12 7
14 13 11 14 14 14 17 18 18 18 15 9 7 6 5 6 9 11 11 19 13 13 13 12 9 7 6 12 15 21 19 10 11 18 19 16 11 13 8 8 5 11 11 11 13 7 11
13 14 13 13 15 13 16 17 17 17 16 5 6 5 6 8 6 10 18 17 20 14 13 10 8 7 8 9 9 14 19 8 12 15 6 11 15 17 13 16 16 17 15 16 16 13 12
14 13 13 14 14 13 14 16 17 16 17 6 5 1 6 4 11 11 5 5 17 15 13 8 13 16 13 10 14 12 17 11 10 7 9 11 12 16 20 10 13 14 18 19 20 19 18
15 14 14 14 12 11 13 14 15 15 20 6 5 5 2 8 5 10 9 12 12 16 6 12 12 12 19 14 14 13 14 15 11 12 12 9 8 9 13 9 13 16 18 17 20 20 13
15 16 15 13 12 11 12 13 13 11 14 4 2 3 6 2 6 7 14 15 12 2 9 3 5 7 12 11 4 6 4 4 8 14 13 12 8 8 14 8 7 11 15 16 18 12 15
16 14 12 12 12 10 11 12 11 7 7 5 4 5 6 7 6 6 2 5 11 5 6 1 4 7 7 3 4 5 6 7 8 6 10 10 11 6 8 7 14 1 2 11 12 10 9
16 15 13 11 10 10 11 11 8 6 3 7 3 4 5 8 5 7 8 6 5 6 7 6 2 5 4 7 8 8 7 7 5 3 5 6 10 7 9 13 13 10 5 7 10 11 12
15 15 13 12 11 11 11 9 7 6 4 7 4 3 5 7 3 5 7 3 5 6 7 6 4 4 6 6 9 12 14 12 10 7 1 6 4 10 7 15 19 11 10 4 3 10 5
11 12 12 13 12 11 11 9 8 7 3 6 3 3 5 7 0 5 2 5 4 4 4 3 2 5 5 9 11 9 12 4 12 17 8 9 9 14 13 13 9 8 8 6 11 1 4
10 9 10 11 10 9 9 10 9 7 4 5 3 3 5 6 8 4 2 5 3 3 5 6 6 6 6 8 10 5 8 6 7 5 10 12 9 10 11 11 16 10 8 9 5 6 4
11 10 9 9 11 11 12 10 8 8 5 5 5 2 4 7 7 7 10 11 7 7 6 3 5 3 6 6 2 2 5 4 8 8 4 8 3 4 4 0 6 5 9 8 6 6 5
Wind_Direction
19 17 13 14 10 8 5 3 359 355 353 349 346 344 341 339 337 334 330 330 327 323 314 306 263 215 222 214 349 48 151 154 169 189 192 192 205 200 174 128 154 111 54 27 12 109 154
16 15 12 12 9 7 4 0 358 354 350 347 344 340 338 338 335 332 330 328 323 313 302 288 210 200 244 227 38 122 151 161 174 188 176 203 201 278 139 114 304 15 333 358 141 119 140
12 10 9 10 7 4 1 358 355 352 348 343 340 338 336 336 335 332 331 329 321 301 270 203 187 252 248 50 103 143 160 180 173 202 174 158 171 242 174 146 45 273 256 147 155 161 143
11 7 6 5 4 1 358 355 352 349 344 340 338 337 335 333 333 331 329 328 326 324 179 170 198 246 283 81 153 163 163 150 184 176 212 162 243 255 265 123 191 240 253 202 143 176 139
7 5 2 0 360 357 355 353 349 346 341 339 337 336 333 332 330 329 325 321 307 168 163 179 227 255 138 145 175 175 185 172 167 164 147 180 234 242 188 217 207 199 206 216 155 207 151
2 359 357 356 355 354 351 350 346 343 340 338 336 335 332 331 328 327 321 293 321 188 200 225 258 236 171 187 145 158 171 168 167 160 160 204 213 213 210 220 223 167 186 194 186 187 213
358 1 356 353 350 348 346 345 342 339 338 337 335 334 331 329 326 327 308 209 210 183 215 268 106 326 136 116 145 172 161 178 165 185 188 201 217 213 217 219 19 86 252 240 203 156 222
354 354 356 352 347 343 341 340 339 337 335 335 334 332 330 328 325 322 263 264 39 354 288 217 242 253 211 179 156 159 174 176 182 191 191 186 227 207 159 182 208 213 223 188 161 189 225
350 344 345 345 343 341 339 338 336 335 333 332 332 331 330 327 321 278 299 273 350 327 258 172 199 211 183 198 175 171 193 191 194 192 199 221 122 142 187 182 202 208 227 152 176 175 213
343 345 342 340 342 340 338 336 335 333 331 330 330 330 332 330 288 346 257 114 292 267 264 164 195 198 184 197 205 170 199 188 197 206 194 224 152 187 200 207 215 169 166 173 166 195 206
340 339 341 343 340 338 336 334 334 332 330 327 327 327 328 321 313 255 32 320 295 220 255 127 142 125 165 190 135 185 192 201 195 182 209 163 190 202 209 197 199 99 161 180 189 216 238
335 334 341 342 338 335 333 331 332 331 329 324 323 323 328 223 223 265 302 299 224 229 233 166 154 176 177 205 185 144 179 222 255 201 225 168 134 226 205 136 202 139 153 162 204 233 221
334 333 339 336 335 333 333 332 332 330 328 324 320 315 306 267 289 348 299 219 215 239 120 171 182 177 188 183 170 176 183 193 193 191 194 201 201 160 180 144 157 197 194 206 213 199 217
322 325 331 331 331 332 331 331 332 330 328 325 321 311 185 229 234 276 254 218 228 223 225 40 199 188 199 181 185 188 185 195 216 212 184 197 183 185 184 207 181 209 235 275 205 220 137
314 322 325 328 329 331 331 330 331 330 329 326 314 288 246 202 214 242 218 216 215 236 267 222 188 194 199 187 194 192 203 203 198 208 226 202 208 148 193 173 223 163 227 317 282 212 262
312 310 321 323 326 330 330 330 332 332 331 328 311 288 242 149 177 207 216 229 227 238 235 223 219 203 198 192 202 195 191 208 200 196 237 195 215 181 142 169 147 275 151 203 227 241 256
306 309 314 319 323 327 329 330 332 333 334 322 267 277 60 175 193 203 217 223 235 220 237 226 237 222 230 200 204 195 190 181 204 197 212 183 238 149 170 207 206 173 211 236 300 305 296
306 308 312 319 322 324 327 329 333 335 338 320 291 250 122 195 204 208 217 222 254 251 215 238 262 267 229 210 202 207 210 210 196 200 202 218 213 194 206 104 293 238 232 204 225 188 236
312 311 305 318 320 320 324 328 333 335 355 313 292 284 145 231 228 203 217 223 230 232 221 222 228 232 212 221 216 209 208 143 181 182 193 179 219 208 185 177 184 223 210 235 243 280 267
295 299 305 314 314 317 321 326 330 333 342 284 278 259 173 201 280 287 205 217 216 219 253 241 263 238 208 210 207 209 208 158 188 199 43 195 214 229 213 214 208 204 224 221 230 242 248
291 295 299 300 302 313 319 323 328 332 340 271 228 33 354 202 212 244 271 244 216 208 223 219 233 242 225 221 195 204 194 152 174 138 188 206 223 223 241 272 272 223 226 219 229 240 257
294 293 292 296 302 309 314 320 328 333 324 257 301 326 336 288 259 235 210 217 228 216 224 210 238 231 229 241 214 184 188 189 171 178 181 208 214 209 229 240 244 244 244 238 229 247 251
293 292 294 291 296 296 308 316 325 342 325 307 25 237 277 194 219 231 223 232 219 150 188 305 267 253 232 225 354 316 24 207 151 174 181 177 164 197 227 191 217 233 228 227 227 228 235
290 289 292 293 290 293 301 310 320 346 329 313 335 291 268 257 238 239 281 241 229 212 279 144 263 242 48 315 240 206 144 135 140 112 173 174 191 204 249 168 225 359 51 222 228 216 236
288 294 285 273 282 287 296 307 312 325 312 301 321 281 291 270 301 243 227 242 230 215 228 240 104 9 297 214 188 167 173 176 127 122 157 235 209 203 238 224 240 152 177 183 201 230 218
282 286 285 279 266 274 282 291 297 307 317 289 292 297 277 297 164 349 280 291 261 211 182 191 149 324 221 230 222 207 200 209 187 161 200 159 243 242 193 251 250 270 124 128 157 232 96
300 302 288 280 288 282 277 283 283 286 310 290 296 262 270 272 299 299 278 327 317 248 276 148 25 195 222 209 215 213 213 231 199 204 180 185 216 225 231 239 245 126 133 161 217 99 98
311 331 333 309 290 280 269 268 275 265 280 279 319 262 300 290 295 276 310 294 279 269 284 53 216 193 209 231 226 185 261 171 231 202 192 198 207 211 238 238 234 143 138 230 74 101 80
304 311 303 303 293 284 274 263 265 252 234 251 270 203 283 262 317 319 291 284 280 308 334 329 355 25 14 268 215 67 200 170 229 186 192 217 303 275 259 208 96 137 89 111 118 106 75